This is the latest recevied weather packets stored in our database for station/object IU1OLT-7. If no packets are shown the sender has not sent any weather packets the latest 10 day(s).
| Time | Temp. | Humidity | Pressure | Rain* | Wind** | Luminosity | Snow |
|---|---|---|---|---|---|---|---|
| 1788555398 | 24.44° C | 36% | 1025.2 hPa | - | - | - | - |
| 1788552697 | 25° C | 33% | 1025.4 hPa | - | - | - | - |
| 1788551797 | 25° C | 32% | 1025.3 hPa | - | - | - | - |
| 1788550892 | 24.44° C | 34% | 1025.4 hPa | - | - | - | - |
| 1788549097 | 25° C | 34% | 1025.4 hPa | - | - | - | - |
| 1788548197 | 25.56° C | 34% | 1025.3 hPa | - | - | - | - |
| 1788547295 | 25° C | 35% | 1025.3 hPa | - | - | - | - |
| 1788546396 | 24.44° C | 36% | 1025.2 hPa | - | - | - | - |
| 1788545489 | 25.56° C | 34% | 1025.1 hPa | - | - | - | - |
| 1788543689 | 25.56° C | 34% | 1025 hPa | - | - | - | - |
| 1788542796 | 26.67° C | 32% | 1025 hPa | - | - | - | - |
| 1788541889 | 27.78° C | 30% | 1025.1 hPa | - | - | - | - |
| 1788540989 | 29.44° C | 27% | 1025.1 hPa | - | - | - | - |
| 1788536489 | 34.44° C | 27% | 1025.4 hPa | - | - | - | - |
| 1788534689 | 33.89° C | 28% | 1025.5 hPa | - | - | - | - |
| 1788532895 | 36.67° C | 25% | 1025.7 hPa | - | - | - | - |
| 1788531997 | 36.67° C | 24% | 1025.7 hPa | - | - | - | - |
| 1788530197 | 37.78° C | 25% | 1025.8 hPa | - | - | - | - |
| 1788529295 | 37.78° C | 23% | 1025.8 hPa | - | - | - | - |
| 1788528395 | 37.22° C | 20% | 1025.8 hPa | - | - | - | - |
| 1788527497 | 38.89° C | 20% | 1025.8 hPa | - | - | - | - |
| 1788526589 | 39.44° C | 19% | 1026 hPa | - | - | - | - |
| 1788525689 | 38.89° C | 19% | 1026.1 hPa | - | - | - | - |
| 1788524795 | 38.33° C | 21% | 1026.3 hPa | - | - | - | - |
| 1788523889 | 38.89° C | 22% | 1026.2 hPa | - | - | - | - |
* Rain since midnight (hover to see other rain measurements)
** Current wind speed in m/s (hover to see current wind gust speed)